{"data":{"norad_id":69024,"epoch":"2026-05-24T23:53:34.054656Z","epoch_age_seconds":75496,"freshness":"FRESH","line1":"1 69024U 26100AW  26144.99553304  .00004918  00000+0  23266-3 0  9998","line2":"2 69024  97.4092  43.2324 0005070  84.2785 275.9028 15.19818194  3281","mean_motion":15.19818194,"eccentricity":0.000507,"inclination_deg":97.4092,"raan_deg":43.2324,"arg_perigee_deg":84.2785,"mean_anomaly_deg":275.9028,"bstar":0.00023266,"rev_number":328,"period_min":94.748174859657,"perigee_km":502.89913823055,"apogee_km":509.88004819607,"semimajor_km":6884.5265932133,"source":"CELESTRAK","updated_at":"2026-05-25T13:38:09.042675Z"}}